ANZ946 NZAA-NCRG

Flight info

Callsign ANZ946
Flight time 3h 24m
Altitude 37000
Route DCT AKLOM G594 MEXIP/N0475F390 G594 BIXIT DCT
Aircraft B77W/H-SDE1E2E3FGHIJ2J3J4J5M1RWXY/LB1D1

Departure

Time 2026-05-04 02:27
Airport Auckland International Airport (NZAA)

Arrival

Time 2026-05-04 05:51
Airport Rarotonga International Airport (NCRG)
Time Latitude Longitude Altitude Speed Heading
2026-05-04 02:17 -37.00708 174.78305 57 ft 0 kts 296°
2026-05-04 02:18 -37.00713 174.78320 57 ft 4 kts 293°
2026-05-04 02:18 -37.00723 174.78352 29 ft 4 kts 284°
2026-05-04 02:19 -37.00727 174.78384 30 ft 4 kts 260°
2026-05-04 02:19 -37.00717 174.78408 28 ft 2 kts 206°
2026-05-04 02:19 -37.00730 174.78400 30 ft 4 kts 206°
2026-05-04 02:19 -37.00755 174.78387 30 ft 4 kts 199°
2026-05-04 02:20 -37.00782 174.78380 30 ft 4 kts 188°
2026-05-04 02:20 -37.00791 174.78379 30 ft 0 kts 186°
2026-05-04 02:22 -37.00800 174.78378 30 ft 4 kts 186°
2026-05-04 02:22 -37.00846 174.78372 30 ft 9 kts 186°
2026-05-04 02:22 -37.00930 174.78362 30 ft 14 kts 185°
2026-05-04 02:22 -37.00991 174.78375 30 ft 13 kts 163°
2026-05-04 02:23 -37.01076 174.78351 30 ft 13 kts 224°
2026-05-04 02:23 -37.01116 174.78249 30 ft 13 kts 249°
2026-05-04 02:23 -37.01147 174.78137 30 ft 13 kts 251°
2026-05-04 02:23 -37.01177 174.78028 30 ft 13 kts 250°
2026-05-04 02:24 -37.01211 174.77903 30 ft 18 kts 251°
2026-05-04 02:24 -37.01258 174.77734 30 ft 23 kts 251°
2026-05-04 02:24 -37.01317 174.77522 30 ft 27 kts 251°
2026-05-04 02:24 -37.01377 174.77303 30 ft 27 kts 251°
2026-05-04 02:25 -37.01418 174.77158 30 ft 12 kts 248°
2026-05-04 02:25 -37.01480 174.77106 30 ft 11 kts 195°
2026-05-04 02:25 -37.01554 174.77085 30 ft 10 kts 192°
2026-05-04 02:25 -37.01615 174.77107 30 ft 10 kts 132°
2026-05-04 02:26 -37.01612 174.77156 30 ft 6 kts 66°
2026-05-04 02:26 -37.01594 174.77220 30 ft 17 kts 71°
2026-05-04 02:26 -37.01467 174.77674 31 ft 98 kts 71°
2026-05-04 02:26 -37.01162 174.78778 35 ft 167 kts 70°
2026-05-04 02:27 -37.00762 174.80251 485 ft 185 kts 71°
2026-05-04 02:27 -37.00351 174.81745 1504 ft 178 kts 70°
2026-05-04 02:27 -36.99944 174.83206 2342 ft 181 kts 70°
2026-05-04 02:27 -36.99502 174.84775 2753 ft 205 kts 70°
2026-05-04 02:28 -36.99006 174.86594 3009 ft 238 kts 71°
2026-05-04 02:28 -36.98448 174.88623 3703 ft 249 kts 71°
2026-05-04 02:28 -36.97881 174.90668 4617 ft 255 kts 71°
2026-05-04 02:28 -36.97295 174.92773 5589 ft 257 kts 71°
2026-05-04 02:29 -36.96703 174.94895 6560 ft 259 kts 71°
2026-05-04 02:29 -36.96107 174.97032 7467 ft 262 kts 71°
2026-05-04 02:29 -36.95498 174.99209 8311 ft 268 kts 71°
2026-05-04 02:29 -36.94876 175.01429 9144 ft 273 kts 71°
2026-05-04 02:30 -36.94243 175.03685 10011 ft 277 kts 70°
2026-05-04 02:30 -36.93579 175.06007 10611 ft 293 kts 70°
2026-05-04 02:30 -36.92848 175.08526 10821 ft 321 kts 70°
2026-05-04 02:30 -36.92060 175.11227 11077 ft 346 kts 70°
2026-05-04 02:31 -36.91221 175.14106 11768 ft 358 kts 70°
2026-05-04 02:31 -36.90360 175.17063 12660 ft 365 kts 69°
2026-05-04 02:31 -36.89486 175.20065 13750 ft 369 kts 69°
2026-05-04 02:31 -36.88602 175.23100 14825 ft 373 kts 69°
2026-05-04 02:32 -36.87707 175.26167 15795 ft 379 kts 69°
2026-05-04 02:32 -36.86799 175.29276 16774 ft 383 kts 69°
2026-05-04 02:32 -36.85866 175.32423 17738 ft 387 kts 67°
2026-05-04 02:32 -36.84699 175.35482 18621 ft 393 kts 61°
2026-05-04 02:33 -36.83324 175.38461 19453 ft 399 kts 58°
2026-05-04 02:33 -36.81865 175.41438 20280 ft 404 kts 58°
2026-05-04 02:33 -36.80398 175.44403 21083 ft 409 kts 58°
2026-05-04 02:33 -36.78901 175.47456 21865 ft 415 kts 58°
2026-05-04 02:34 -36.77400 175.50558 22643 ft 420 kts 58°
2026-05-04 02:34 -36.75890 175.53716 23413 ft 426 kts 58°
2026-05-04 02:34 -36.74370 175.56917 24144 ft 432 kts 58°
2026-05-04 02:34 -36.72834 175.60168 24731 ft 438 kts 58°
2026-05-04 02:35 -36.71279 175.63466 25271 ft 445 kts 58°
2026-05-04 02:35 -36.69696 175.66826 25831 ft 452 kts 58°
2026-05-04 02:35 -36.68093 175.70224 26382 ft 457 kts 58°
2026-05-04 02:35 -36.66469 175.73664 26897 ft 464 kts 57°
2026-05-04 02:36 -36.64811 175.77170 27302 ft 473 kts 57°
2026-05-04 02:36 -36.63131 175.80719 27797 ft 479 kts 57°
2026-05-04 02:36 -36.61430 175.84306 28378 ft 483 kts 57°
2026-05-04 02:36 -36.59735 175.87878 28883 ft 488 kts 57°
2026-05-04 02:37 -36.57975 175.91583 29333 ft 494 kts 57°
2026-05-04 02:37 -36.56234 175.95246 29763 ft 500 kts 57°
2026-05-04 02:37 -36.54451 175.98991 30208 ft 505 kts 57°
2026-05-04 02:37 -36.52647 176.02776 30623 ft 510 kts 56°
2026-05-04 02:38 -36.50829 176.06589 31005 ft 513 kts 57°
2026-05-04 02:38 -36.49002 176.10414 31456 ft 514 kts 57°
2026-05-04 02:38 -36.47185 176.14220 32082 ft 510 kts 57°
2026-05-04 02:38 -36.45382 176.17990 32800 ft 504 kts 57°
2026-05-04 02:39 -36.43595 176.21723 33424 ft 501 kts 56°
2026-05-04 02:39 -36.41802 176.25459 33692 ft 506 kts 56°
2026-05-04 02:39 -36.40015 176.29176 34069 ft 508 kts 56°
2026-05-04 02:39 -36.38209 176.32931 34644 ft 504 kts 56°
2026-05-04 02:40 -36.36419 176.36651 35173 ft 500 kts 56°
2026-05-04 02:40 -36.34636 176.40352 35598 ft 499 kts 56°
2026-05-04 02:40 -36.32853 176.44048 35962 ft 499 kts 56°
2026-05-04 02:40 -36.31068 176.47741 36306 ft 499 kts 57°
2026-05-04 02:41 -36.29282 176.51434 36684 ft 498 kts 57°
2026-05-04 02:41 -36.27502 176.55113 37062 ft 497 kts 57°
2026-05-04 02:41 -36.25712 176.58806 37439 ft 496 kts 57°
2026-05-04 02:41 -36.23926 176.62486 37538 ft 501 kts 57°
2026-05-04 02:42 -36.20333 176.69880 37507 ft 499 kts 57°
2026-05-04 02:42 -36.16782 176.77176 37510 ft 496 kts 57°
2026-05-04 02:43 -36.13207 176.84501 37513 ft 496 kts 57°
2026-05-04 02:43 -36.09633 176.91807 37516 ft 496 kts 57°
2026-05-04 02:44 -36.06071 176.99074 37512 ft 497 kts 57°
2026-05-04 02:44 -36.02473 177.06400 37513 ft 498 kts 56°
2026-05-04 02:45 -35.98868 177.13724 37515 ft 499 kts 56°
2026-05-04 02:45 -35.95248 177.21063 37509 ft 500 kts 56°
2026-05-04 02:46 -35.91645 177.28351 37511 ft 500 kts 56°
2026-05-04 02:46 -35.88013 177.35683 37512 ft 500 kts 56°
2026-05-04 02:47 -35.85352 177.41045 37512 ft 500 kts 56°
2026-05-04 02:53 -35.83582 177.44607 37512 ft 501 kts 56°
2026-05-04 02:53 -35.81517 177.48756 37509 ft 500 kts 56°
2026-05-04 02:54 -35.77871 177.56074 37507 ft 500 kts 56°
2026-05-04 02:54 -35.74224 177.63376 37447 ft 501 kts 56°
2026-05-04 02:55 -35.68746 177.74316 37508 ft 501 kts 56°
2026-05-04 02:56 -35.65076 177.81624 37508 ft 503 kts 56°
2026-05-04 02:56 -35.61391 177.88950 37497 ft 504 kts 56°
2026-05-04 02:57 -35.57721 177.96229 37500 ft 504 kts 56°
2026-05-04 02:57 -35.54026 178.03542 37507 ft 503 kts 56°
2026-05-04 02:58 -35.50328 178.10848 37494 ft 503 kts 56°
2026-05-04 02:58 -35.46636 178.18123 37493 ft 502 kts 56°
2026-05-04 02:59 -35.42957 178.25361 37507 ft 502 kts 56°
2026-05-04 02:59 -35.39258 178.32623 37496 ft 502 kts 56°
2026-05-04 03:00 -35.35551 178.39887 37505 ft 503 kts 56°
2026-05-04 03:00 -35.31928 178.47224 37495 ft 503 kts 57°
2026-05-04 03:01 -35.28360 178.54610 37500 ft 504 kts 57°
2026-05-04 03:01 -35.24782 178.61989 37497 ft 504 kts 57°
2026-05-04 03:02 -35.21185 178.69355 37489 ft 505 kts 57°
2026-05-04 03:02 -35.17573 178.76719 37498 ft 505 kts 57°
2026-05-04 03:03 -35.13966 178.84055 37489 ft 506 kts 57°
2026-05-04 03:03 -35.10331 178.91433 37485 ft 507 kts 57°
2026-05-04 03:04 -35.06686 178.98819 37497 ft 507 kts 57°
2026-05-04 03:04 -35.03039 179.06193 37496 ft 508 kts 57°
2026-05-04 03:05 -34.99379 179.13577 37489 ft 507 kts 57°
2026-05-04 03:05 -34.95742 179.20901 37484 ft 507 kts 57°
2026-05-04 03:06 -34.92081 179.28256 37491 ft 508 kts 57°
2026-05-04 03:06 -34.88410 179.35616 37483 ft 508 kts 57°
2026-05-04 03:07 -34.84731 179.42976 37483 ft 509 kts 57°
2026-05-04 03:07 -34.81041 179.50343 37487 ft 509 kts 57°
2026-05-04 03:08 -34.77972 179.56459 37490 ft 509 kts 57°
2026-05-04 03:08 -34.74279 179.63803 37481 ft 509 kts 57°
2026-05-04 03:09 -34.69950 179.72393 37475 ft 509 kts 57°
2026-05-04 03:09 -34.66865 179.78502 37481 ft 509 kts 57°
2026-05-04 03:10 -34.62556 179.87018 37481 ft 509 kts 57°
2026-05-04 03:10 -34.59469 179.93107 37485 ft 509 kts 57°
2026-05-04 03:11 -34.55745 -179.99564 37487 ft 509 kts 56°
2026-05-04 03:11 -34.52015 -179.92239 37477 ft 509 kts 57°
2026-05-04 03:12 -34.48287 -179.84930 37479 ft 509 kts 57°
2026-05-04 03:12 -34.44554 -179.77627 37477 ft 509 kts 57°
2026-05-04 03:13 -34.40844 -179.70384 37472 ft 509 kts 57°
2026-05-04 03:13 -34.37093 -179.63077 37473 ft 510 kts 56°
2026-05-04 03:14 -34.33346 -179.55793 37470 ft 510 kts 56°
2026-05-04 03:14 -34.29597 -179.48518 37470 ft 510 kts 56°
2026-05-04 03:15 -34.25830 -179.41225 37469 ft 510 kts 56°
2026-05-04 03:15 -34.22094 -179.34005 37470 ft 510 kts 56°
2026-05-04 03:16 -34.18321 -179.26729 37461 ft 510 kts 56°
2026-05-04 03:16 -34.14547 -179.19467 37468 ft 510 kts 56°
2026-05-04 03:17 -34.10785 -179.12242 37461 ft 511 kts 56°
2026-05-04 03:17 -34.07000 -179.04987 37461 ft 511 kts 56°
2026-05-04 03:18 -34.03202 -178.97722 37460 ft 511 kts 56°
2026-05-04 03:18 -33.99398 -178.90460 37457 ft 512 kts 56°
2026-05-04 03:19 -33.95595 -178.83214 37464 ft 512 kts 56°
2026-05-04 03:19 -33.91802 -178.76003 37455 ft 512 kts 56°
2026-05-04 03:20 -33.87983 -178.68756 37453 ft 512 kts 56°
2026-05-04 03:20 -33.84158 -178.61512 37452 ft 512 kts 56°
2026-05-04 03:21 -33.80323 -178.54265 37452 ft 512 kts 56°
2026-05-04 03:21 -33.76514 -178.47079 37460 ft 512 kts 56°
2026-05-04 03:22 -33.72675 -178.39853 37449 ft 513 kts 56°
2026-05-04 03:22 -33.68824 -178.32618 37451 ft 513 kts 56°
2026-05-04 03:23 -33.64977 -178.25404 37438 ft 513 kts 56°
2026-05-04 03:23 -33.61152 -178.18247 37447 ft 513 kts 56°
2026-05-04 03:24 -33.57289 -178.11032 37446 ft 513 kts 56°
2026-05-04 03:24 -33.53423 -178.03828 37452 ft 513 kts 56°
2026-05-04 03:25 -33.49550 -177.96623 37443 ft 514 kts 56°
2026-05-04 03:25 -33.45697 -177.89470 37445 ft 514 kts 56°
2026-05-04 03:26 -33.41817 -177.82280 37441 ft 514 kts 56°
2026-05-04 03:26 -33.37926 -177.75084 37438 ft 514 kts 56°
2026-05-04 03:27 -33.34034 -177.67900 37442 ft 514 kts 56°
2026-05-04 03:27 -33.30161 -177.60766 37436 ft 514 kts 56°
2026-05-04 03:28 -33.26262 -177.53597 37435 ft 514 kts 56°
2026-05-04 03:28 -33.22342 -177.46405 37433 ft 514 kts 56°
2026-05-04 03:29 -33.18436 -177.39251 37432 ft 514 kts 56°
2026-05-04 03:29 -33.14552 -177.32153 37438 ft 514 kts 56°
2026-05-04 03:30 -33.10628 -177.24994 37415 ft 515 kts 56°
2026-05-04 03:30 -33.06696 -177.17834 37430 ft 515 kts 56°
2026-05-04 03:31 -33.02759 -177.10680 37430 ft 516 kts 56°
2026-05-04 03:31 -32.98839 -177.03569 37430 ft 517 kts 56°
2026-05-04 03:32 -32.94886 -176.96413 37425 ft 517 kts 56°
2026-05-04 03:32 -32.90916 -176.89242 37429 ft 517 kts 56°
2026-05-04 03:33 -32.86950 -176.82088 37417 ft 518 kts 56°
2026-05-04 03:33 -32.82974 -176.74933 37407 ft 517 kts 55°
2026-05-04 03:34 -32.79001 -176.67795 37414 ft 517 kts 55°
2026-05-04 03:34 -32.75045 -176.60703 37420 ft 518 kts 55°
2026-05-04 03:35 -32.71057 -176.53566 37421 ft 518 kts 55°
2026-05-04 03:35 -32.67064 -176.46433 37414 ft 518 kts 55°
2026-05-04 03:36 -32.63065 -176.39304 37410 ft 518 kts 55°
2026-05-04 03:36 -32.59089 -176.32229 37414 ft 518 kts 55°
2026-05-04 03:37 -32.55084 -176.25116 37395 ft 518 kts 55°
2026-05-04 03:37 -32.51068 -176.17996 37416 ft 519 kts 55°
2026-05-04 03:38 -32.47048 -176.10885 37410 ft 519 kts 55°
2026-05-04 03:38 -32.43045 -176.03816 37403 ft 520 kts 55°
2026-05-04 03:39 -32.39011 -175.96704 37408 ft 520 kts 55°
2026-05-04 03:39 -32.34972 -175.89597 37404 ft 520 kts 55°
2026-05-04 03:40 -32.30930 -175.82499 37399 ft 520 kts 55°
2026-05-04 03:40 -32.26881 -175.75402 37380 ft 520 kts 54°
2026-05-04 03:41 -32.22853 -175.68355 37405 ft 520 kts 54°
2026-05-04 03:41 -32.18795 -175.61269 37389 ft 521 kts 54°
2026-05-04 03:42 -32.14722 -175.54170 37389 ft 522 kts 54°
2026-05-04 03:42 -32.10647 -175.47079 37406 ft 522 kts 54°
2026-05-04 03:43 -32.06567 -175.39994 37390 ft 522 kts 54°
2026-05-04 03:43 -32.02477 -175.32905 37391 ft 523 kts 54°
2026-05-04 03:44 -31.98384 -175.25823 37363 ft 523 kts 54°
2026-05-04 03:44 -31.94312 -175.18789 37391 ft 523 kts 54°
2026-05-04 03:45 -31.90206 -175.11710 37385 ft 523 kts 54°
2026-05-04 03:45 -31.86095 -175.04633 37391 ft 523 kts 54°
2026-05-04 03:46 -31.81998 -174.97598 37377 ft 524 kts 54°
2026-05-04 03:46 -31.77873 -174.90534 37384 ft 524 kts 54°
2026-05-04 03:47 -31.73740 -174.83469 37382 ft 524 kts 54°
2026-05-04 03:47 -31.69607 -174.76411 37367 ft 524 kts 54°
2026-05-04 03:48 -31.65462 -174.69346 37372 ft 524 kts 53°
2026-05-04 03:48 -31.61344 -174.62339 37371 ft 525 kts 53°
2026-05-04 03:49 -31.57191 -174.55286 37364 ft 525 kts 53°
2026-05-04 03:49 -31.53031 -174.48234 37363 ft 526 kts 53°
2026-05-04 03:50 -31.48862 -174.41180 37365 ft 526 kts 53°
2026-05-04 03:50 -31.44711 -174.34168 37359 ft 526 kts 53°
2026-05-04 03:51 -31.40534 -174.27126 37370 ft 526 kts 53°
2026-05-04 03:51 -31.36354 -174.20090 37345 ft 526 kts 53°
2026-05-04 03:52 -31.32166 -174.13056 37357 ft 526 kts 52°
2026-05-04 03:52 -31.28008 -174.06083 37355 ft 526 kts 52°
2026-05-04 03:53 -31.23812 -173.99059 37352 ft 526 kts 52°
2026-05-04 03:53 -31.19614 -173.92045 37348 ft 526 kts 52°
2026-05-04 03:54 -31.15439 -173.85081 37352 ft 526 kts 52°
2026-05-04 03:54 -31.11233 -173.78078 37344 ft 526 kts 52°
2026-05-04 03:55 -31.07024 -173.71083 37333 ft 526 kts 52°
2026-05-04 03:55 -31.02820 -173.64109 37338 ft 526 kts 52°
2026-05-04 03:56 -30.99322 -173.58315 37341 ft 526 kts 52°
2026-05-04 03:56 -30.95101 -173.51335 37345 ft 526 kts 52°
2026-05-04 03:57 -30.90869 -173.44349 37333 ft 527 kts 52°
2026-05-04 03:57 -30.86660 -173.37414 37330 ft 527 kts 52°
2026-05-04 03:58 -30.80291 -173.26941 37331 ft 528 kts 51°
2026-05-04 03:58 -30.76039 -173.19964 37312 ft 527 kts 51°
2026-05-04 03:59 -30.71791 -173.13008 37329 ft 528 kts 51°
2026-05-04 03:59 -30.67564 -173.06098 37324 ft 529 kts 51°
2026-05-04 04:00 -30.63297 -172.99135 37326 ft 529 kts 51°
2026-05-04 04:00 -30.59017 -172.92163 37327 ft 530 kts 51°
2026-05-04 04:01 -30.54729 -172.85190 37322 ft 530 kts 51°
2026-05-04 04:01 -30.50439 -172.78225 37317 ft 530 kts 51°
2026-05-04 04:02 -30.46168 -172.71302 37318 ft 531 kts 50°
2026-05-04 04:02 -30.41867 -172.64345 37319 ft 531 kts 50°
2026-05-04 04:03 -30.37561 -172.57391 37313 ft 531 kts 50°
2026-05-04 04:03 -30.33270 -172.50473 37310 ft 531 kts 50°
2026-05-04 04:04 -30.28950 -172.43520 37308 ft 531 kts 50°
2026-05-04 04:04 -30.24624 -172.36570 37307 ft 531 kts 50°
2026-05-04 04:05 -30.20325 -172.29676 37309 ft 531 kts 50°
2026-05-04 04:05 -30.15990 -172.22733 37279 ft 531 kts 49°
2026-05-04 04:06 -30.11661 -172.15813 37299 ft 531 kts 49°
2026-05-04 04:06 -30.07331 -172.08906 37300 ft 531 kts 49°
2026-05-04 04:07 -30.02999 -172.02007 37294 ft 530 kts 49°
2026-05-04 04:07 -29.98685 -171.95146 37291 ft 530 kts 49°
2026-05-04 04:08 -29.94351 -171.88265 37295 ft 530 kts 49°
2026-05-04 04:08 -29.90013 -171.81391 37292 ft 530 kts 49°
2026-05-04 04:09 -29.85666 -171.74514 37286 ft 530 kts 49°
2026-05-04 04:09 -29.81321 -171.67649 37284 ft 529 kts 49°
2026-05-04 04:10 -29.77007 -171.60848 37279 ft 529 kts 49°
2026-05-04 04:10 -29.72664 -171.54012 37285 ft 529 kts 49°
2026-05-04 04:11 -29.68306 -171.47164 37277 ft 530 kts 49°
2026-05-04 04:11 -29.63971 -171.40364 37275 ft 530 kts 49°
2026-05-04 04:12 -29.59605 -171.33525 37275 ft 530 kts 49°
2026-05-04 04:12 -29.55238 -171.26696 37274 ft 531 kts 48°
2026-05-04 04:13 -29.50860 -171.19861 37265 ft 531 kts 48°
2026-05-04 04:13 -29.46474 -171.13025 37269 ft 532 kts 48°
2026-05-04 04:14 -29.42068 -171.06172 37267 ft 533 kts 48°
2026-05-04 04:14 -29.37666 -170.99333 37268 ft 533 kts 48°
2026-05-04 04:15 -29.33278 -170.92528 37263 ft 533 kts 48°
2026-05-04 04:15 -29.28861 -170.85689 37258 ft 534 kts 47°
2026-05-04 04:16 -29.24436 -170.78850 37262 ft 534 kts 47°
2026-05-04 04:16 -29.20004 -170.72011 37242 ft 534 kts 47°
2026-05-04 04:17 -29.15596 -170.65220 37256 ft 535 kts 47°
2026-05-04 04:17 -29.11149 -170.58380 37254 ft 535 kts 47°
2026-05-04 04:18 -29.06699 -170.51547 37252 ft 536 kts 46°
2026-05-04 04:18 -29.02240 -170.44712 37250 ft 536 kts 46°
2026-05-04 04:19 -28.97768 -170.37867 37248 ft 537 kts 46°
2026-05-04 04:19 -28.93321 -170.31073 37250 ft 538 kts 46°
2026-05-04 04:20 -28.88810 -170.24192 37623 ft 542 kts 46°
2026-05-04 04:20 -28.86549 -170.20741 38051 ft 540 kts 45°
2026-05-04 04:20 -28.84296 -170.17308 38486 ft 538 kts 45°
2026-05-04 04:21 -28.82049 -170.13891 38811 ft 539 kts 44°
2026-05-04 04:21 -28.79795 -170.10469 39061 ft 539 kts 45°
2026-05-04 04:21 -28.77540 -170.07044 39177 ft 542 kts 45°
2026-05-04 04:21 -28.75272 -170.03602 39213 ft 543 kts 45°
2026-05-04 04:22 -28.70752 -169.96745 39226 ft 539 kts 45°
2026-05-04 04:22 -28.66280 -169.89976 39232 ft 536 kts 45°
2026-05-04 04:23 -28.61792 -169.83198 39232 ft 535 kts 45°
2026-05-04 04:23 -28.57298 -169.76425 39235 ft 537 kts 44°
2026-05-04 04:24 -28.52781 -169.69633 39241 ft 543 kts 44°
2026-05-04 04:24 -28.48212 -169.62762 39238 ft 546 kts 44°
2026-05-04 04:25 -28.43616 -169.55855 39235 ft 547 kts 44°
2026-05-04 04:25 -28.39049 -169.49004 39225 ft 546 kts 44°
2026-05-04 04:26 -28.34462 -169.42134 39214 ft 544 kts 44°
2026-05-04 04:26 -28.29880 -169.35289 39216 ft 543 kts 44°
2026-05-04 04:27 -28.25306 -169.28467 39225 ft 542 kts 44°
2026-05-04 04:27 -28.20739 -169.21666 39214 ft 541 kts 44°
2026-05-04 04:28 -28.16202 -169.14919 39214 ft 540 kts 44°
2026-05-04 04:28 -28.11641 -169.08148 39215 ft 540 kts 44°
2026-05-04 04:29 -28.07076 -169.01383 39207 ft 541 kts 44°
2026-05-04 04:29 -28.02497 -168.94607 39212 ft 542 kts 44°
2026-05-04 04:30 -27.97906 -168.87825 39209 ft 543 kts 44°
2026-05-04 04:30 -27.93299 -168.81028 39201 ft 544 kts 44°
2026-05-04 04:31 -27.88712 -168.74270 39190 ft 544 kts 44°
2026-05-04 04:31 -27.84098 -168.67482 39177 ft 544 kts 44°
2026-05-04 04:32 -27.79484 -168.60707 39190 ft 544 kts 44°
2026-05-04 04:32 -27.74868 -168.53940 39197 ft 544 kts 44°
2026-05-04 04:33 -27.70249 -168.47178 39191 ft 544 kts 44°
2026-05-04 04:33 -27.65620 -168.40413 39190 ft 544 kts 44°
2026-05-04 04:34 -27.61024 -168.33706 39191 ft 544 kts 44°
2026-05-04 04:34 -27.56392 -168.26958 39164 ft 544 kts 44°
2026-05-04 04:35 -27.51763 -168.20223 39182 ft 543 kts 44°
2026-05-04 04:35 -27.47127 -168.13488 39185 ft 543 kts 44°
2026-05-04 04:36 -27.42501 -168.06779 39181 ft 542 kts 44°
2026-05-04 04:36 -27.37891 -168.00104 39183 ft 542 kts 44°
2026-05-04 04:37 -27.28619 -167.86709 39180 ft 543 kts 44°
2026-05-04 04:38 -27.23961 -167.79996 39178 ft 544 kts 44°
2026-05-04 04:38 -27.19336 -167.73340 39178 ft 544 kts 44°
2026-05-04 04:39 -27.14668 -167.66630 39175 ft 545 kts 44°
2026-05-04 04:39 -27.09995 -167.59925 39172 ft 545 kts 44°
2026-05-04 04:40 -27.05307 -167.53208 39171 ft 546 kts 44°
2026-05-04 04:40 -27.00616 -167.46498 39168 ft 547 kts 44°
2026-05-04 04:41 -26.95942 -167.39821 39166 ft 547 kts 44°
2026-05-04 04:41 -26.91231 -167.33102 39164 ft 547 kts 44°
2026-05-04 04:42 -26.87318 -167.27528 39149 ft 546 kts 43°
2026-05-04 04:42 -26.81847 -167.19745 39151 ft 546 kts 43°
2026-05-04 04:43 -26.77901 -167.14142 39155 ft 546 kts 43°
2026-05-04 04:43 -26.73222 -167.07509 39154 ft 546 kts 43°
2026-05-04 04:44 -26.68500 -167.00822 39153 ft 547 kts 43°
2026-05-04 04:44 -26.63781 -166.94151 39151 ft 547 kts 43°
2026-05-04 04:45 -26.59058 -166.87482 39153 ft 547 kts 43°
2026-05-04 04:47 -26.42515 -166.64204 39139 ft 547 kts 43°
2026-05-04 04:47 -26.37779 -166.57563 39142 ft 547 kts 43°
2026-05-04 04:48 -26.33043 -166.50930 39138 ft 547 kts 43°
2026-05-04 04:49 -26.21167 -166.34342 39092 ft 547 kts 43°
2026-05-04 04:49 -26.16441 -166.27754 39126 ft 546 kts 42°
2026-05-04 04:50 -26.11690 -166.21146 39130 ft 546 kts 42°
2026-05-04 04:50 -26.06935 -166.14541 39124 ft 545 kts 42°
2026-05-04 04:51 -26.02178 -166.07943 39126 ft 546 kts 42°
2026-05-04 04:51 -25.97421 -166.01354 39130 ft 546 kts 42°
2026-05-04 04:52 -25.92696 -165.94818 39120 ft 546 kts 42°
2026-05-04 04:52 -25.87929 -165.88234 39120 ft 547 kts 42°
2026-05-04 04:53 -25.83164 -165.81658 39113 ft 545 kts 42°
2026-05-04 04:53 -25.78403 -165.75101 39111 ft 545 kts 42°
2026-05-04 04:54 -25.73637 -165.68546 39115 ft 545 kts 42°
2026-05-04 04:54 -25.68899 -165.62040 39112 ft 545 kts 42°
2026-05-04 04:55 -25.64125 -165.55492 39109 ft 545 kts 42°
2026-05-04 04:55 -25.59357 -165.48961 39106 ft 545 kts 41°
2026-05-04 04:56 -25.54578 -165.42425 39101 ft 545 kts 41°
2026-05-04 04:56 -25.49826 -165.35934 39088 ft 544 kts 41°
2026-05-04 04:57 -25.45052 -165.29422 39092 ft 544 kts 41°
2026-05-04 04:57 -25.40278 -165.22921 39101 ft 543 kts 41°
2026-05-04 04:58 -25.35547 -165.16485 39098 ft 543 kts 41°
2026-05-04 04:58 -25.30778 -165.10008 39091 ft 542 kts 41°
2026-05-04 04:59 -25.26011 -165.03539 39096 ft 542 kts 41°
2026-05-04 04:59 -25.21239 -164.97067 39098 ft 542 kts 41°
2026-05-04 05:00 -25.16523 -164.90636 39058 ft 542 kts 42°
2026-05-04 05:01 -25.09419 -164.80938 39090 ft 540 kts 42°
2026-05-04 05:01 -25.04675 -164.74482 39086 ft 540 kts 42°
2026-05-04 05:02 -24.99942 -164.68052 39089 ft 540 kts 42°
2026-05-04 05:02 -24.95237 -164.61671 39079 ft 539 kts 41°
2026-05-04 05:03 -24.90499 -164.55251 39079 ft 539 kts 41°
2026-05-04 05:04 -24.81021 -164.42435 39038 ft 539 kts 42°
2026-05-04 05:04 -24.76282 -164.36040 39069 ft 538 kts 42°
2026-05-04 05:06 -24.57323 -164.10542 39071 ft 539 kts 42°
2026-05-04 05:07 -24.52565 -164.04162 39066 ft 540 kts 42°
2026-05-04 05:07 -24.47796 -163.97778 39061 ft 540 kts 42°
2026-05-04 05:09 -24.26357 -163.69179 39055 ft 539 kts 42°
2026-05-04 05:10 -24.21579 -163.62828 39042 ft 540 kts 42°
2026-05-04 05:10 -24.16828 -163.56522 39052 ft 540 kts 42°
2026-05-04 05:11 -24.12042 -163.50177 39048 ft 540 kts 42°
2026-05-04 05:11 -24.07246 -163.43828 39029 ft 540 kts 43°
2026-05-04 05:12 -24.02461 -163.37498 39039 ft 539 kts 43°
2026-05-04 05:12 -23.97669 -163.31171 39036 ft 539 kts 43°
2026-05-04 05:13 -23.92912 -163.24896 39033 ft 539 kts 43°
2026-05-04 05:13 -23.88118 -163.18583 39037 ft 540 kts 43°
2026-05-04 05:14 -23.83312 -163.12261 39036 ft 540 kts 43°
2026-05-04 05:14 -23.78504 -163.05944 39031 ft 540 kts 43°
2026-05-04 05:15 -23.73693 -162.99630 39027 ft 541 kts 43°
2026-05-04 05:15 -23.68912 -162.93364 39024 ft 541 kts 43°
2026-05-04 05:16 -23.64092 -162.87055 39026 ft 541 kts 43°
2026-05-04 05:16 -23.59267 -162.80748 39024 ft 541 kts 43°
2026-05-04 05:17 -23.54431 -162.74434 39024 ft 542 kts 43°
2026-05-04 05:17 -23.49602 -162.68138 39015 ft 542 kts 43°
2026-05-04 05:18 -23.44770 -162.61845 39014 ft 541 kts 43°
2026-05-04 05:18 -23.39931 -162.55551 39013 ft 542 kts 43°
2026-05-04 05:19 -23.35124 -162.49307 39014 ft 541 kts 43°
2026-05-04 05:19 -23.30282 -162.43024 39005 ft 540 kts 43°
2026-05-04 05:20 -23.25444 -162.36753 39004 ft 540 kts 43°
2026-05-04 05:20 -23.20619 -162.30509 39005 ft 539 kts 43°
2026-05-04 05:21 -23.15822 -162.24309 39000 ft 539 kts 43°
2026-05-04 05:21 -23.10986 -162.18067 39001 ft 539 kts 43°
2026-05-04 05:22 -23.06156 -162.11840 39004 ft 540 kts 43°
2026-05-04 05:22 -23.01317 -162.05608 38972 ft 539 kts 43°
2026-05-04 05:23 -22.96482 -161.99386 38990 ft 538 kts 43°
2026-05-04 05:23 -22.91657 -161.93187 38991 ft 537 kts 43°
2026-05-04 05:24 -22.86826 -161.86989 38989 ft 537 kts 43°
2026-05-04 05:24 -22.81993 -161.80795 38992 ft 537 kts 43°
2026-05-04 05:25 -22.77139 -161.74587 38316 ft 548 kts 42°
2026-05-04 05:25 -22.74687 -161.71460 37516 ft 550 kts 43°
2026-05-04 05:25 -22.72215 -161.68300 36740 ft 550 kts 43°
2026-05-04 05:26 -22.69756 -161.65153 36280 ft 543 kts 43°
2026-05-04 05:26 -22.67323 -161.62035 35768 ft 538 kts 43°
2026-05-04 05:26 -22.64916 -161.58959 35236 ft 534 kts 43°
2026-05-04 05:26 -22.62514 -161.55894 34716 ft 530 kts 43°
2026-05-04 05:27 -22.60134 -161.52862 34220 ft 527 kts 43°
2026-05-04 05:28 -22.43929 -161.32259 30643 ft 501 kts 43°
2026-05-04 05:29 -22.41670 -161.29394 30148 ft 499 kts 43°
2026-05-04 05:29 -22.39425 -161.26549 29578 ft 496 kts 43°
2026-05-04 05:29 -22.37948 -161.24678 29216 ft 493 kts 43°
2026-05-04 05:29 -22.35729 -161.21867 28678 ft 488 kts 43°
2026-05-04 05:31 -22.20789 -161.02981 25163 ft 457 kts 45°
2026-05-04 05:31 -22.18756 -161.00418 24671 ft 453 kts 45°
2026-05-04 05:32 -22.16709 -160.97837 24173 ft 450 kts 45°
2026-05-04 05:32 -22.14679 -160.95279 23680 ft 446 kts 45°
2026-05-04 05:32 -22.12667 -160.92745 23111 ft 443 kts 45°
2026-05-04 05:33 -22.08696 -160.87744 22088 ft 434 kts 45°
2026-05-04 05:33 -22.06742 -160.85285 21591 ft 430 kts 45°
2026-05-04 05:33 -22.04806 -160.82851 21107 ft 426 kts 45°
2026-05-04 05:33 -22.02887 -160.80439 20630 ft 422 kts 45°
2026-05-04 05:34 -22.00980 -160.78043 20146 ft 419 kts 45°
2026-05-04 05:34 -21.99085 -160.75665 19668 ft 416 kts 44°
2026-05-04 05:34 -21.97186 -160.73332 19175 ft 410 kts 41°
2026-05-04 05:34 -21.95137 -160.71286 18706 ft 404 kts 34°
2026-05-04 05:35 -21.92955 -160.69393 18241 ft 400 kts 32°
2026-05-04 05:35 -21.90781 -160.67585 18028 ft 389 kts 32°
2026-05-04 05:35 -21.88657 -160.65817 17752 ft 388 kts 32°
2026-05-04 05:35 -21.86529 -160.64025 17346 ft 388 kts 33°
2026-05-04 05:36 -21.84446 -160.62242 16613 ft 378 kts 33°
2026-05-04 05:36 -21.82410 -160.60480 15791 ft 373 kts 33°
2026-05-04 05:36 -21.80398 -160.58729 15383 ft 371 kts 33°
2026-05-04 05:36 -21.78398 -160.56985 14935 ft 370 kts 33°
2026-05-04 05:37 -21.76402 -160.55243 14491 ft 369 kts 34°
2026-05-04 05:37 -21.74403 -160.53498 14032 ft 369 kts 34°
2026-05-04 05:37 -21.72410 -160.51758 13578 ft 368 kts 34°
2026-05-04 05:38 -21.68473 -160.48320 12674 ft 364 kts 34°
2026-05-04 05:38 -21.66502 -160.46601 12243 ft 363 kts 35°
2026-05-04 05:38 -21.64547 -160.44895 11808 ft 361 kts 35°
2026-05-04 05:38 -21.62602 -160.43200 11364 ft 359 kts 35°
2026-05-04 05:39 -21.60665 -160.41511 10938 ft 358 kts 35°
2026-05-04 05:39 -21.56852 -160.38188 10415 ft 343 kts 36°
2026-05-04 05:39 -21.55018 -160.36589 10261 ft 333 kts 36°
2026-05-04 05:40 -21.51538 -160.33558 9921 ft 317 kts 36°
2026-05-04 05:40 -21.49849 -160.32090 9616 ft 307 kts 36°
2026-05-04 05:40 -21.48215 -160.30668 9229 ft 296 kts 36°
2026-05-04 05:41 -21.46645 -160.29304 8883 ft 285 kts 36°
2026-05-04 05:41 -21.45111 -160.27971 8571 ft 283 kts 36°
2026-05-04 05:41 -21.43581 -160.26644 8274 ft 282 kts 36°
2026-05-04 05:41 -21.42057 -160.25322 7957 ft 281 kts 37°
2026-05-04 05:42 -21.40542 -160.24008 7659 ft 280 kts 37°
2026-05-04 05:42 -21.39028 -160.22695 7355 ft 279 kts 37°
2026-05-04 05:42 -21.37539 -160.21404 7048 ft 279 kts 37°
2026-05-04 05:42 -21.36031 -160.20095 6743 ft 278 kts 37°
2026-05-04 05:43 -21.34527 -160.18792 6437 ft 278 kts 38°
2026-05-04 05:43 -21.33022 -160.17487 6119 ft 278 kts 38°
2026-05-04 05:43 -21.31517 -160.16183 5795 ft 278 kts 38°
2026-05-04 05:45 -21.21162 -160.07118 3636 ft 265 kts 53°
2026-05-04 05:45 -21.20400 -160.05410 3517 ft 249 kts 82°
2026-05-04 05:47 -21.20255 -159.94158 2255 ft 195 kts 92°
2026-05-04 05:47 -21.20254 -159.92773 2009 ft 178 kts 94°
2026-05-04 05:47 -21.20254 -159.91495 1761 ft 163 kts 94°
2026-05-04 05:48 -21.20255 -159.90335 1565 ft 149 kts 94°
2026-05-04 05:48 -21.20256 -159.89244 1375 ft 147 kts 94°
2026-05-04 05:48 -21.20257 -159.88156 1222 ft 144 kts 95°
2026-05-04 05:48 -21.20258 -159.87071 1018 ft 149 kts 94°
2026-05-04 05:49 -21.20261 -159.85962 822 ft 147 kts 91°
2026-05-04 05:49 -21.20245 -159.84893 631 ft 144 kts 91°
2026-05-04 05:49 -21.20233 -159.83827 472 ft 143 kts 94°
2026-05-04 05:49 -21.20254 -159.82747 294 ft 145 kts 91°
2026-05-04 05:51 -21.20148 -159.79835 15 ft 2 kts 343°
2026-05-04 05:51 -21.20135 -159.79845 15 ft 6 kts 319°
2026-05-04 05:52 -21.20107 -159.79873 15 ft 4 kts 317°
2026-05-04 05:52 -21.20086 -159.79882 15 ft 4 kts
2026-05-04 05:52 -21.20076 -159.79875 15 ft 1 kts 40°
2026-05-04 05:52 -21.20074 -159.79864 15 ft 1 kts 81°
2026-05-04 05:53 -21.20074 -159.79861 15 ft 0 kts 91°